Location: Chiroubles
(46.1812°N, 4.6660°E)
Time: 17:48:01
(UTC+00:00)

Vanguard 2 - Pass Details

Date: 05 December 2020
Orbit: 553 x 2937 km, 32.9° (Epoch: 16 January)

Event Time Altitude Azimuth Distance (km) Brightness Sun altitude
Rises 05:41:22 0° 209° (SSW) 5,797 11.9 -14.4°
Reaches altitude 10° 05:47:42 10° 191° (S) 4,255 11.4 -13.4°
Maximum altitude 05:53:14 15° 160° (SSE) 3,307 11.3 -12.5°
Drops below altitude 10° 05:57:40 10° 128° (SE) 3,257 12.0 -11.8°
Sets 06:01:26 0° 106° (ESE) 3,821 13.3 -11.2°
